GW3250 Weather Reports


time (UTC)temp
F
wind
direction
speed
knots
gust
knots
rain 1hr
in
rain 24hr
in
rain mn
in
humidity
%
barometer
mb
20260901031737 66 162 0.0 0.9 0.00 0.11 0.11 99 1015.8
20260901031233 66 167 0.0 0.0 0.00 0.11 0.11 99 1016.0
20260901030733 66 182 0.0 0.0 0.00 0.11 0.11 99 1016.0
20260901030229 66 170 0.9 0.9 0.00 0.11 0.11 99 1016.1
20260901025728 66 147 0.9 0.9 0.00 0.11 0.11 99 1016.0
20260901025223 66 147 0.0 0.0 0.07 0.11 0.11 99 1016.0
20260901024717 66 147 0.0 0.0 0.07 0.11 0.11 99 1016.1
20260901024217 66 175 0.0 0.0 0.00 0.10 0.10 99 1016.2
20260901023715 66 175 0.0 0.0 0.05 0.10 0.10 99 1016.2
20260901023210 66 175 0.0 0.0 0.05 0.10 0.10 99 1016.3
20260901022706 66 172 0.0 0.0 0.00 0.09 0.09 99 1016.5
20260901022201 66 171 0.0 0.0 0.00 0.09 0.09 99 1016.4
20260901021656 66 171 0.0 0.0 0.00 0.09 0.09 99 1016.5
20260901021151 66 186 0.9 1.7 0.00 0.09 0.09 99 1016.5
20260901020647 66 177 0.0 0.9 0.00 0.09 0.09 99 1016.5
20260901020142 66 177 0.0 0.0 0.00 0.09 0.09 99 1016.4
20260901015637 66 155 0.0 0.0 0.00 0.09 0.09 99 1016.6
20260901015137 66 155 0.0 0.0 0.00 0.09 0.09 99 1016.6
20260901014632 66 155 0.0 0.0 0.00 0.09 0.09 99 1016.5
20260901014128 66 155 0.0 0.0 0.00 0.09 0.09 99 1016.8
20260901013624 66 166 0.0 0.0 0.00 0.09 0.09 99 1016.8
20260901013119 66 166 0.0 0.0 0.00 0.09 0.09 99 1016.7
20260901012619 66 166 0.0 0.0 0.00 0.09 0.09 99 1016.6
20260901012114 66 166 0.0 0.0 0.00 0.09 0.09 99 1016.7
20260901011611 66 155 0.0 0.0 0.00 0.09 0.09 99 1016.5
20260901011109 66 155 0.0 0.0 0.00 0.09 0.09 99 1016.7
20260901010604 66 155 0.0 0.0 0.00 0.09 0.09 99 1016.7
20260901005558 66 155 0.0 0.0 0.00 0.09 0.09 99 1016.5
20260901005053 66 155 0.0 0.0 0.00 0.09 0.09 99 1016.6
20260901004552 66 155 0.0 0.0 0.00 0.09 0.09 99 1016.6
20260901004047 66 155 0.0 0.0 0.00 0.09 0.09 99 1016.6
20260901003542 66 155 0.0 0.0 0.00 0.09 0.09 99 1016.8
20260901003040 66 155 0.0 0.0 0.00 0.09 0.09 99 1016.7
20260901002540 66 154 0.0 0.0 0.00 0.09 0.09 99 1016.6
20260901002035 66 154 0.0 0.0 0.00 0.09 0.09 99 1016.6
20260901001530 66 154 0.0 0.0 0.00 0.09 0.09 99 1016.6
20260901001025 66 154 0.0 0.0 0.00 0.09 0.09 99 1016.6
20260901000526 66 154 0.9 0.9 0.00 0.09 0.09 99 1016.6
20260901000021 66 154 0.0 0.0 0.00 0.09 0.09 99 1016.6
20260831235515 66 154 0.0 0.0 0.07 0.09 0.09 99 1016.6
20260831235011 66 154 0.0 0.0 0.07 0.09 0.09 99 1016.6
20260831234505 66 154 0.0 0.0 0.07 0.09 0.09 99 1016.7
20260831234001 66 154 0.0 0.0 0.00 0.08 0.08 99 1016.6
20260831233455 66 154 0.0 0.0 0.00 0.08 0.08 99 1016.6
20260831232951 66 154 0.0 0.0 0.00 0.08 0.08 99 1016.7
20260831232447 66 154 0.0 0.0 0.00 0.08 0.08 99 1016.6
20260831231942 66 187 0.0 0.9 0.00 0.08 0.08 99 1017.0
20260831231439 66 187 0.0 0.0 0.05 0.08 0.08 99 1016.9
20260831230934 67 187 0.0 0.0 0.05 0.08 0.08 99 1016.7
20260831230429 67 191 0.0 0.0 0.00 0.07 0.07 99 1016.8
20260831225923 67 191 0.0 0.0 0.00 0.07 0.07 99 1017.0
20260831225419 67 191 0.0 0.0 0.00 0.07 0.07 99 1017.1
20260831224914 67 191 0.0 0.0 0.00 0.07 0.07 99 1017.2
20260831224413 67 191 0.0 0.0 0.00 0.07 0.07 99 1016.8
20260831223908 67 191 0.0 0.0 0.00 0.07 0.07 99 1016.9
20260831223404 67 191 0.0 0.0 0.00 0.07 0.07 99 1017.0
20260831222901 67 191 0.0 0.0 0.00 0.07 0.07 99 1016.9
20260831222356 67 191 0.0 0.0 0.00 0.07 0.07 99 1017.1
20260831221851 67 191 0.0 0.0 0.00 0.07 0.07 99 1017.1
20260831221347 67 191 0.0 0.0 0.00 0.07 0.07 99 1017.1
20260831220841 67 191 0.0 0.0 0.00 0.07 0.07 99 1017.1
20260831220337 67 191 0.0 0.0 0.00 0.07 0.07 99 1017.0
20260831215832 67 191 0.0 0.0 0.00 0.07 0.07 99 1017.2
20260831215328 67 191 0.0 0.0 0.00 0.07 0.07 99 1017.2
20260831214824 67 191 0.0 0.0 0.00 0.07 0.07 99 1017.1
20260831214322 68 191 0.0 0.0 0.00 0.07 0.07 99 1017.1
20260831213816 68 192 0.0 0.0 0.00 0.07 0.07 99 1017.1
20260831213313 68 149 0.0 0.9 0.00 0.07 0.07 99 1017.0
20260831212808 68 149 0.0 0.0 0.00 0.07 0.07 99 1017.2
20260831212306 68 166 0.0 0.9 0.00 0.07 0.07 99 1017.1
20260831211803 68 172 0.9 0.9 0.00 0.07 0.07 99 1017.2
20260831211258 68 138 0.9 0.9 0.00 0.07 0.07 99 1017.3
20260831210752 68 206 1.7 1.7 0.00 0.07 0.07 99 1017.2
20260831210249 69 215 0.0 0.0 0.00 0.07 0.07 99 1017.2
20260831205748 69 215 0.0 0.0 0.00 0.07 0.07 99 1017.1
20260831205244 69 215 0.0 0.0 0.00 0.07 0.07 99 1017.3
20260831204743 68 222 0.9 0.9 0.00 0.07 0.07 99 1017.2
20260831204243 68 222 0.9 0.9 0.00 0.07 0.07 99 1017.3
20260831203742 69 222 0.0 0.0 0.00 0.07 0.07 98 1017.4
20260831203237 69 222 0.0 0.9 0.00 0.07 0.07 98 1017.3
20260831202735 69 222 0.0 0.9 0.00 0.07 0.07 98 1017.6
20260831202231 69 216 0.9 0.9 0.00 0.07 0.07 98 1017.5
20260831201725 69 210 0.0 0.9 0.00 0.07 0.07 99 1017.6
20260831201224 68 210 0.0 0.0 0.00 0.07 0.07 99 1017.5
20260831200720 68 217 1.7 1.7 0.00 0.07 0.07 99 1017.5
20260831200220 68 196 0.0 0.0 0.00 0.07 0.07 99 1017.5
20260831195716 68 179 0.0 0.9 0.00 0.07 0.07 99 1017.5
20260831195211 68 179 0.0 0.0 0.00 0.07 0.07 99 1017.6
20260831194706 67 203 0.9 0.9 0.00 0.07 0.07 99 1017.7
20260831194202 68 115 0.0 0.0 0.00 0.07 0.07 99 1017.7
20260831193655 67 115 0.0 0.0 0.07 0.07 0.07 99 1017.9
20260831193151 67 115 0.0 0.0 0.07 0.07 0.07 99 1017.9
20260831192646 67 115 0.0 0.0 0.00 0.06 0.06 99 1018.0
20260831192141 67 116 0.0 0.0 0.00 0.06 0.06 99 1018.1
20260831191637 67 116 0.0 0.0 0.00 0.06 0.06 99 1018.1
20260831191133 67 115 0.0 0.0 0.00 0.06 0.06 99 1018.0
20260831190628 67 115 0.0 0.0 0.05 0.06 0.06 99 1018.3
20260831190126 67 116 0.0 0.0 0.05 0.06 0.06 99 1018.3
20260831185622 67 116 0.0 0.0 0.00 0.05 0.05 99 1018.5
20260831185118 67 116 0.0 0.0 0.07 0.05 0.05 99 1018.6
20260831184617 67 116 0.0 0.0 0.07 0.05 0.05 99 1018.6
20260831184113 67 115 0.0 0.0 0.07 0.05 0.05 99 1018.7
20260831183607 67 115 0.0 0.0 0.05 0.04 0.04 98 1018.6
20260831183107 68 115 0.0 0.0 0.05 0.04 0.04 98 1018.7
20260831182606 68 115 0.0 0.0 0.00 0.03 0.03 98 1018.5
20260831182102 68 115 0.0 0.0 0.07 0.03 0.03 98 1018.9
20260831181601 69 115 0.0 0.0 0.12 0.03 0.03 96 1018.9
20260831181056 69 115 0.0 0.0 0.12 0.02 0.02 96 1018.6
20260831180551 69 115 0.9 0.9 0.07 0.01 0.01 94 1018.9
20260831180047 69 115 0.0 0.0 0.00 0.00 0.00 92 1019.0
20260831175541 70 115 0.0 0.0 0.00 0.00 0.00 92 1019.0
20260831175038 70 115 0.0 0.0 0.00 0.00 0.00 90 1018.9
20260831174532 70 115 0.0 0.0 0.00 0.00 0.00 89 1018.9
20260831174026 71 115 0.0 0.0 0.00 0.00 0.00 90 1018.7
20260831173525 71 115 0.0 0.0 0.00 0.00 0.00 88 1018.9
20260831173021 71 115 0.0 0.0 0.00 0.00 0.00 88 1018.7
20260831172516 71 120 0.9 0.9 0.00 0.00 0.00 87 1018.9
20260831172011 72 153 0.0 0.0 0.00 0.00 0.00 86 1018.7
20260831171507 71 121 0.9 0.9 0.00 0.00 0.00 87 1018.7
20260831171004 71 132 0.0 0.9 0.00 0.00 0.00 87 1018.9
20260831170459 71 132 0.0 0.0 0.00 0.00 0.00 89 1018.6
20260831165956 70 132 0.0 0.0 0.00 0.00 0.00 90 1019.0
20260831165456 70 132 0.0 0.9 0.00 0.00 0.00 89 1019.1
20260831164953 70 132 0.0 0.0 0.00 0.00 0.00 90 1019.0
20260831164449 70 132 0.0 0.0 0.00 0.00 0.00 89 1018.7
20260831163944 70 134 0.0 0.0 0.00 0.00 0.00 91 1019.0
20260831163439 70 134 0.0 0.0 0.00 0.00 0.00 91 1019.1
20260831161632 71 130 0.0 0.0 0.00 0.00 0.00 85 1019.3
20260831161128 71 130 0.0 0.0 0.00 0.00 0.00 85 1019.3
20260831160626 71 130 0.0 0.0 0.00 0.00 0.00 84 1019.2
20260831160122 71 130 0.0 0.9 0.00 0.00 0.00 86 1019.1
20260831154858 70 146 0.0 0.0 0.00 0.00 0.00 87 1019.1
20260831154355 70 146 0.0 0.0 0.00 0.00 0.00 87 1019.1
20260831153852 70 131 0.0 0.0 0.00 0.00 0.00 86 1019.1
20260831151520 70 194 0.9 0.9 0.00 0.00 0.00 86 1019.2
20260831151020 70 194 0.9 0.9 0.00 0.00 0.00 86 1019.2
20260831150515 71 224 1.7 2.6 0.00 0.00 0.00 86 1019.4
20260831150011 71 131 0.9 1.7 0.00 0.00 0.00 86 1019.2
20260831145505 71 193 0.0 0.9 0.00 0.00 0.00 85 1019.3
20260831145001 71 129 0.0 0.9 0.00 0.00 0.00 85 1019.3
20260831144456 71 165 0.0 0.0 0.00 0.00 0.00 85 1019.3
20260831143952 69 164 0.0 0.0 0.00 0.00 0.00 90 1019.2
20260831143446 69 209 0.0 0.9 0.00 0.00 0.00 88 1019.4
20260831142942 69 209 0.0 0.0 0.00 0.00 0.00 89 1019.4
20260831142438 68 209 0.0 0.9 0.00 0.00 0.00 90 1019.6
20260831141937 68 209 0.0 0.9 0.00 0.00 0.00 90 1019.3
20260831141432 68 208 0.0 0.0 0.00 0.00 0.00 89 1019.3
20260831140927 68 208 0.0 0.9 0.00 0.00 0.00 89 1019.3
20260831140426 68 204 0.0 0.9 0.00 0.00 0.00 90 1019.0
20260831135926 68 200 0.0 0.9 0.00 0.00 0.00 90 1019.3
20260831135425 67 200 0.0 0.0 0.00 0.00 0.00 93 1019.5
20260831134920 67 186 0.9 1.7 0.00 0.00 0.00 93 1019.5
20260831134417 67 167 0.0 0.0 0.00 0.00 0.00 93 1019.3
20260831133916 66 187 0.0 0.9 0.00 0.00 0.00 94 1019.2
20260831133411 66 167 0.0 0.0 0.00 0.00 0.00 95 1019.4
20260831132906 66 204 0.9 1.7 0.00 0.00 0.00 95 1019.3
20260831132401 66 212 1.7 1.7 0.00 0.00 0.00 95 1019.2
20260831131901 65 198 0.9 0.9 0.00 0.00 0.00 97 1019.0
20260831131356 65 195 0.9 0.9 0.00 0.00 0.00 97 1019.3
20260831130852 65 191 0.9 0.9 0.00 0.00 0.00 96 1019.3
20260831130348 65 107 0.0 0.9 0.00 0.00 0.00 95 1019.2
20260831125846 65 177 0.0 0.0 0.00 0.00 0.00 96 1019.0
20260831125342 64 177 0.9 0.9 0.00 0.00 0.00 97 1019.1
20260831124842 64 170 0.0 0.9 0.00 0.00 0.00 96 1019.3
20260831124339 64 170 0.0 0.0 0.00 0.00 0.00 98 1019.5
20260831123838 63 198 0.0 0.0 0.00 0.00 0.00 99 1019.5
20260831123337 63 198 0.0 0.0 0.00 0.00 0.00 99 1019.3
20260831122832 62 198 0.0 0.0 0.00 0.00 0.00 99 1019.3
20260831122328 62 198 0.0 0.0 0.00 0.00 0.00 99 1019.3
20260831121828 62 198 0.0 0.0 0.00 0.00 0.00 99 1019.4
20260831121324 62 185 0.9 0.9 0.00 0.00 0.00 99 1019.4
20260831120820 62 184 0.0 0.0 0.00 0.00 0.00 99 1019.2
20260831120314 62 175 0.9 0.9 0.00 0.00 0.00 99 1019.1
20260831115809 62 174 0.0 0.0 0.00 0.00 0.00 99 1019.3
20260831115306 62 174 0.0 0.0 0.00 0.00 0.00 99 1019.0
20260831114804 62 174 0.0 0.0 0.00 0.00 0.00 99 1019.2
20260831114304 62 174 0.0 0.0 0.00 0.00 0.00 99 1019.0
20260831113800 61 174 0.0 0.0 0.00 0.00 0.00 99 1019.1
20260831113259 61 174 0.0 0.0 0.00 0.00 0.00 99 1018.6
20260831112754 61 174 0.0 0.0 0.00 0.00 0.00 99 1019.3
20260831112249 61 174 0.0 0.0 0.00 0.00 0.00 99 1018.9
20260831111745 61 174 0.0 0.0 0.00 0.00 0.00 99 1018.9
20260831111241 61 174 0.0 0.0 0.00 0.00 0.00 99 1018.7
20260831110737 61 174 0.0 0.0 0.00 0.00 0.00 99 1018.6
20260831110232 61 174 0.0 0.0 0.00 0.00 0.00 99 1018.6
20260831105730 60 174 0.0 0.0 0.00 0.00 0.00 99 1018.6
20260831105226 61 174 0.0 0.0 0.00 0.00 0.00 99 1018.5
20260831104721 61 174 0.0 0.0 0.00 0.00 0.00 99 1018.3
20260831104218 61 174 0.9 1.7 0.00 0.00 0.00 99 1018.5
20260831103717 61 174 0.9 0.9 0.00 0.00 0.00 99 1018.3
20260831103213 61 173 0.0 0.0 0.00 0.00 0.00 99 1018.1
20260831102712 61 173 0.0 0.9 0.00 0.00 0.00 99 1018.0
20260831102208 61 173 0.0 0.0 0.00 0.00 0.00 99 1018.1
20260831101703 61 173 0.0 0.0 0.00 0.00 0.00 99 1018.2
20260831101158 61 173 0.0 0.0 0.00 0.00 0.00 99 1018.2
20260831100654 61 173 0.0 0.0 0.00 0.00 0.00 99 1018.2
20260831100150 62 173 0.9 0.9 0.00 0.00 0.00 99 1018.2
20260831095648 61 178 0.0 0.9 0.00 0.00 0.00 99 1018.2
20260831095143 61 178 0.0 0.0 0.00 0.00 0.00 99 1018.2
20260831094638 62 178 0.0 0.0 0.00 0.00 0.00 99 1018.1
20260831094135 62 178 0.0 0.0 0.00 0.00 0.00 99 1018.2
20260831093630 62 178 0.0 0.0 0.00 0.00 0.00 99 1018.3
20260831093126 62 178 0.0 0.0 0.00 0.00 0.00 99 1018.1
20260831092622 62 178 0.0 0.0 0.00 0.00 0.00 99 1018.1
20260831092117 62 179 0.9 0.9 0.00 0.00 0.00 99 1018.1
20260831091617 62 164 0.0 0.0 0.00 0.00 0.00 99 1018.0
20260831091112 62 164 0.0 0.0 0.00 0.00 0.00 99 1018.3
20260831090608 62 164 0.0 0.0 0.00 0.00 0.00 99 1018.2
20260831090104 62 164 0.0 0.0 0.00 0.00 0.00 99 1018.2
20260831085559 62 164 0.0 0.0 0.00 0.00 0.00 99 1018.2
20260831085054 62 164 0.0 0.0 0.00 0.00 0.00 99 1018.3
20260831084550 62 164 0.0 0.0 0.00 0.00 0.00 99 1018.1
20260831084046 62 164 0.0 0.0 0.00 0.00 0.00 99 1018.3
20260831083541 62 164 0.0 0.0 0.00 0.00 0.00 99 1018.1
20260831083036 62 164 0.0 0.0 0.00 0.00 0.00 99 1018.1
20260831082529 62 164 0.0 0.0 0.00 0.00 0.00 99 1018.3
20260831082024 63 164 0.0 0.0 0.00 0.00 0.00 99 1018.4
20260831081520 63 164 0.0 0.0 0.00 0.00 0.00 99 1018.2
20260831081016 63 164 0.0 0.0 0.00 0.00 0.00 98 1018.3
20260831080510 63 164 0.0 0.0 0.00 0.00 0.00 98 1018.0
20260831080007 63 164 0.0 0.0 0.00 0.00 0.00 98 1018.0
20260831075501 63 164 0.0 0.0 0.00 0.00 0.00 98 1018.0
20260831074957 64 164 0.0 0.0 0.00 0.00 0.00 98 1018.1
20260831074456 64 164 0.0 0.0 0.00 0.00 0.00 97 1018.2
20260831073951 64 164 0.0 0.0 0.00 0.00 0.00 98 1018.0
20260831073450 64 164 0.0 0.0 0.00 0.00 0.00 98 1017.9
20260831072949 64 164 0.0 0.0 0.00 0.00 0.00 97 1018.1
20260831072445 64 164 0.0 0.0 0.00 0.00 0.00 97 1017.9
20260831071942 64 164 0.0 0.0 0.00 0.00 0.00 97 1018.1
20260831071441 64 164 0.0 0.0 0.00 0.00 0.00 97 1018.2
20260831070935 64 165 0.0 0.0 0.00 0.00 0.00 97 1018.2
20260831070430 64 165 0.0 0.0 0.00 0.00 0.00 97 1018.2
20260831065929 64 165 0.0 0.0 0.00 0.00 0.00 97 1018.0
20260831065427 64 165 0.0 0.0 0.00 0.00 0.00 98 1018.0
20260831064922 64 165 0.0 0.0 0.00 0.00 0.00 98 1017.9
20260831064417 64 165 0.0 0.0 0.00 0.00 0.00 98 1018.0
20260831063913 64 165 0.0 0.0 0.00 0.00 0.00 98 1018.2
20260831063408 64 165 0.0 0.0 0.00 0.00 0.00 98 1018.2
20260831062902 64 165 0.0 0.0 0.00 0.00 0.00 98 1018.2
20260831062357 63 165 0.0 0.0 0.00 0.00 0.00 99 1018.0
20260831061855 63 165 0.0 0.0 0.00 0.00 0.00 99 1018.0
20260831061349 63 165 0.0 0.0 0.00 0.00 0.00 99 1018.2
20260831060846 63 165 0.0 0.0 0.00 0.00 0.00 99 1018.1
20260831060345 63 165 0.0 0.0 0.00 0.00 0.00 99 1018.2
20260831055839 63 165 0.0 0.0 0.00 0.00 0.00 99 1018.2
20260831055335 63 165 0.0 0.0 0.00 0.00 0.00 99 1018.3
20260831054830 63 165 0.0 0.0 0.00 0.00 0.00 99 1018.3
20260831054325 63 165 0.0 0.0 0.00 0.00 0.00 99 1018.3
20260831053823 63 165 0.0 0.0 0.00 0.00 0.00 99 1018.1
20260831053317 64 165 0.0 0.0 0.00 0.00 0.00 98 1018.2
20260831052812 64 165 0.0 0.0 0.00 0.00 0.00 98 1018.3
20260831052311 64 165 0.0 0.0 0.00 0.00 0.00 98 1018.0
20260831051809 64 165 0.0 0.0 0.00 0.00 0.00 98 1018.2
20260831051308 64 165 0.0 0.0 0.00 0.00 0.00 98 1018.1
20260831050803 64 165 0.0 0.0 0.00 0.00 0.00 97 1018.3
20260831050301 64 165 0.0 0.0 0.00 0.00 0.00 97 1018.2
20260831045750 64 165 0.0 0.0 0.00 0.00 0.00 97 1018.2
20260831045245 64 165 0.0 0.0 0.00 0.00 0.00 97 1018.0
20260831044740 65 165 0.0 0.0 0.00 0.00 0.00 96 1018.2
20260831044234 65 182 0.0 0.0 0.00 0.00 0.00 97 1018.0
20260831043731 65 182 0.0 0.0 0.00 0.00 0.00 97 1018.3
20260831043231 65 182 0.9 0.9 0.00 0.00 0.00 97 1018.3
20260831042725 65 182 0.0 0.0 0.00 0.00 0.00 96 1018.2
20260831042220 65 194 0.0 0.0 0.00 0.00 0.00 97 1018.2
20260831041715 65 194 0.0 0.0 0.00 0.00 0.00 97 1018.3
20260831041214 65 194 0.0 0.0 0.00 0.00 0.00 97 1018.4
20260831040709 65 194 0.0 0.0 0.00 0.00 0.00 98 1018.2
20260831040208 65 193 0.0 0.0 0.00 0.00 0.00 98 1018.1
20260831035706 65 183 0.9 0.9 0.00 0.00 0.00 98 1018.3
20260831035156 65 195 0.9 0.9 0.00 0.00 0.00 98 1018.5
20260831034655 65 195 0.0 0.0 0.00 0.00 0.00 99 1018.3
20260831034150 65 195 0.0 0.0 0.00 0.00 0.00 98 1018.1
20260831033646 66 195 0.0 0.0 0.00 0.00 0.00 98 1018.2
20260831033140 66 195 0.9 1.7 0.00 0.00 0.00 98 1018.1
20260831032640 66 195 0.0 0.9 0.00 0.00 0.00 98 1018.1